SL-3 DEB

Satellite information

Favourite Embed

Satellite Type and Status

DEBRISIN ORBIT

Key statistics

Satellite SL-3 DEB at a glance.

Uptime

17712

Days in orbit

Revolutions

≈ 14.0

Per day

Orbit

LEO

Low Earth Orbit

Inclination

81.3

Latest

Satellite identification and parameters

Extended collection of information and parameters for SL-3 DEB.

Object identification

Identified? True

Debris? True

Object name: SL-3 DEB

International designator: 1977-002E

Object number (NORAD): 14632

Object ID (CCSDS): 14632

Country: COMMONWEALTH OF INDEPENDENT STATES (CIS)

Current information (Y/N): Y

RCS size: SMALL

Orbital parameters

Period: 102.802 minutes

Inclination: 81.2756 deg

SMA: 7269.353 km

Apoapsis: 929.335 km

Periapsis: 853.101 km

RAAN: 155.9244 deg

Eccentricy: 0.0052435

Argument of periapsis: 177.4488 deg

Mean anomaly: 310.2433 deg

Mean motion: 14.00745152 rev/day

Mean motion (dot): 0.00000081 rev/day2

B* drag term: 0.000045615 1/REarth

Two-line elements (TLE)

Creation date: July 3, 2025, 5:26 p.m.

Reference frame: TEME

Reference center: EARTH

Epoch: July 3, 2025, 8:25 a.m. UTC

TLE line 0: 0 SL-3 DEB

TLE line 1: 1 14632U 77002E 25184.35097164 .00000081 00000-0 45615-4 0 9991

TLE line 2: 2 14632 81.2756 155.9244 0052435 177.4488 310.2433 14.00745152299639

Live tracking on map

Real-time ground track for satellite SL-3 DEB.

In-orbit conjunctions

A list of the most updated potential collisions computed for object SL-3 DEB.

Target Orbit TCA Probability of collision Miss distance Type
THORAD AGENA D DEB SSO 2024-06-08 07:51:50 0.0001521971 104.0 (m) DEBRIS

Associated space launch

Second generation soviet meteorological satellite

SL-3 DEB was lifted into orbit during the mission ‘Vostok 8A92M | Meteor-2 2’, on board a Vostok 8A92M space rocket.

The launch took place on Jan. 6, 1977, 11:17 p.m. from 43/3 (43L).

For more information about the launch, click the button.

Launch to space Vostok 8A92M | Meteor-2 2
Vostok 8A92M | Meteor-2 2

Agency: N/A

Status: Launch Successful

Launch date: Jan. 6, 1977, 11:17 p.m. UTC

Rocket: Vostok 8A92M

Launch pad: 43/3 (43L)

Location: Plesetsk Cosmodrome, Russian Federation

...

Latest news about this satellite

There are no fresh news available about this satellite. Check back as we update our databases every day.


Newsletter sign-up

Weekly statistics, charts and insights to help you stay on top of the space industry.